FW2728 Weather Reports


Display with metric or nautical units.
time (UTC)temp
F
wind
direction
speed
MPH
gust
MPH
rain 1hr
in
rain 24hr
in
rain mn
in
humidity
%
barometer
mb
20260506211538 63 56 1.0 4.0 0.00 0.06 0.06 70 1013.7
20260506210518 62 49 1.0 5.0 0.00 0.06 0.06 70 1013.8
20260506205517 62 45 1.0 4.0 0.00 0.06 0.06 71 1013.8
20260506204518 62 43 1.0 4.0 0.00 0.06 0.06 71 1014.0
20260506203535 62 58 2.0 6.0 0.00 0.06 0.06 71 1014.0
20260506202519 61 53 1.0 6.0 0.00 0.06 0.06 73 1014.3
20260506201516 62 4 1.0 4.0 0.00 0.06 0.06 72 1014.4
20260506200515 62 54 2.0 7.0 0.00 0.06 0.06 71 1014.5
20260506195516 62 53 2.0 6.0 0.00 0.06 0.06 73 1014.6
20260506194516 61 62 1.0 4.0 0.00 0.06 0.06 74 1014.6
20260506193516 60 38 1.0 4.0 0.00 0.06 0.06 76 1014.7
20260506192516 60 2 0.0 2.0 0.00 0.06 0.06 76 1014.9
20260506191517 59 29 1.0 3.0 0.00 0.06 0.06 78 1015.0
20260506190536 58 318 0.0 3.0 0.00 0.06 0.06 80 1015.3
20260506185517 58 22 0.0 2.0 0.00 0.06 0.06 80 1015.4
20260506184519 58 35 1.0 2.0 0.00 0.06 0.06 80 1015.3
20260506183517 58 336 1.0 3.0 0.00 0.06 0.06 80 1015.4
20260506182517 58 51 1.0 5.0 0.00 0.06 0.06 80 1014.9
20260506181517 58 50 1.0 4.0 0.00 0.06 0.06 80 1014.4
20260506180518 58 28 2.0 6.0 0.00 0.06 0.06 81 1013.5
20260506175538 57 33 2.0 7.0 0.00 0.06 0.06 83 1013.7
20260506174518 56 39 2.0 7.0 0.00 0.06 0.06 85 1013.8
20260506173516 56 45 2.0 7.0 0.00 0.06 0.06 85 1014.4
20260506172516 56 43 2.0 7.0 0.00 0.06 0.06 87 1014.6
20260506171516 56 47 1.0 5.0 0.00 0.06 0.06 88 1014.6
20260506170516 55 45 2.0 4.0 0.00 0.06 0.06 88 1014.8
20260506165516 55 37 1.0 5.0 0.00 0.06 0.06 89 1014.8
20260506164516 55 46 1.0 4.0 0.00 0.06 0.06 89 1014.9
20260506163517 55 37 1.0 3.0 0.00 0.06 0.06 89 1014.4
20260506162517 56 41 2.0 6.0 0.00 0.06 0.06 89 1014.7
20260506161517 55 43 1.0 8.0 0.01 0.06 0.06 89 1014.6
20260506160517 55 37 1.0 4.0 0.01 0.06 0.06 89 1014.6
20260506155537 56 41 2.0 6.0 0.06 0.06 0.06 90 1015.0
20260506154517 55 14 1.0 4.0 0.06 0.06 0.06 91 1014.5
20260506153517 54 43 1.0 6.0 0.06 0.06 0.06 91 1013.9
20260506152518 54 47 1.0 4.0 0.06 0.06 0.06 90 1014.3
20260506151538 54 33 1.0 3.0 0.05 0.05 0.05 88 1015.9
20260506150518 54 59 2.0 5.0 0.05 0.05 0.05 85 1015.0
20260506145516 55 309 1.0 4.0 0.00 0.00 0.00 83 1016.4
20260506144515 55 358 1.0 3.0 0.00 0.00 0.00 82 1016.1
20260506143516 55 310 1.0 4.0 0.00 0.00 0.00 81 1016.4
20260506142556 55 30 1.0 4.0 0.00 0.00 0.00 80 1014.2
20260506141516 55 18 2.0 7.0 0.00 0.00 0.00 80 1014.6
20260506140516 55 353 1.0 3.0 0.00 0.00 0.00 80 1014.8
20260506135516 55 27 1.0 3.0 0.00 0.00 0.00 79 1014.7
20260506134516 55 28 1.0 4.0 0.00 0.00 0.00 79 1014.2
20260506133516 55 23 1.0 3.0 0.00 0.00 0.00 78 1014.1
20260506132517 55 30 1.0 5.0 0.00 0.00 0.00 77 1013.9
20260506131537 56 21 1.0 4.0 0.00 0.00 0.00 77 1013.8
20260506130517 56 34 2.0 4.0 0.00 0.00 0.00 75 1013.4
20260506125558 56 23 2.0 5.0 0.00 0.00 0.00 74 1013.4
20260506124537 56 37 1.0 4.0 0.00 0.00 0.00 74 1013.4
20260506123517 56 22 1.0 3.0 0.00 0.00 0.00 74 1013.3
20260506122518 57 8 2.0 4.0 0.00 0.00 0.00 74 1013.0
20260506121538 57 25 1.0 5.0 0.00 0.00 0.00 73 1012.9
20260506120518 57 18 1.0 5.0 0.00 0.00 0.00 74 1012.9
20260506115518 57 36 1.0 4.0 0.00 0.00 0.00 74 1012.9
20260506114536 57 15 1.0 4.0 0.00 0.00 0.00 74 1012.8
20260506113518 57 14 1.0 3.0 0.00 0.00 0.00 74 1012.6
20260506112516 58 357 1.0 3.0 0.00 0.00 0.00 74 1012.3
20260506111516 58 12 1.0 3.0 0.00 0.00 0.00 74 1012.0
20260506110536 58 342 2.0 6.0 0.00 0.00 0.00 74 1012.1
20260506105517 59 353 1.0 5.0 0.00 0.00 0.00 74 1011.8
20260506104516 59 346 1.0 3.0 0.00 0.00 0.00 73 1011.8
20260506103516 59 14 1.0 3.0 0.00 0.00 0.00 74 1011.5
20260506102537 60 39 1.0 4.0 0.00 0.00 0.00 74 1011.2
20260506101517 60 42 0.0 4.0 0.00 0.00 0.00 74 1011.1
20260506100517 60 15 1.0 5.0 0.00 0.00 0.00 74 1010.9
20260506095517 60 31 1.0 2.0 0.00 0.00 0.00 74 1010.7
20260506094616 61 19 1.0 3.0 0.00 0.00 0.00 74 1010.8
20260506093516 61 45 0.0 2.0 0.00 0.00 0.00 74 1010.6
20260506092516 61 50 1.0 4.0 0.00 0.00 0.00 74 1010.5
20260506091516 61 42 1.0 4.0 0.00 0.00 0.00 74 1010.5
20260506090536 62 38 1.0 6.0 0.00 0.00 0.00 73 1010.5
20260506085516 62 39 2.0 6.0 0.00 0.00 0.00 74 1010.5
20260506084517 62 38 0.0 3.0 0.00 0.00 0.00 74 1010.3
20260506083517 62 48 1.0 5.0 0.00 0.00 0.00 74 1010.2
20260506082556 63 54 1.0 4.0 0.00 0.00 0.00 74 1010.1
20260506081515 63 34 1.0 3.0 0.00 0.00 0.00 75 1010.1
20260506080516 62 62 1.0 3.0 0.00 0.00 0.00 74 1009.9
20260506073516 63 47 1.0 4.0 0.00 0.00 0.00 75 1009.9
20260506072517 63 45 1.0 4.0 0.00 0.00 0.00 75 1010.0
20260506071517 63 44 1.0 2.0 0.00 0.00 0.00 75 1009.9
20260506070517 63 60 1.0 3.0 0.00 0.00 0.00 75 1009.9
20260506061518 64 49 1.0 3.0 0.00 0.00 0.00 74 1009.8
20260506060535 64 38 1.0 3.0 0.00 0.00 0.00 74 1009.8
20260506050522 66 33 1.0 3.0 0.00 0.00 0.00 72 1009.8
20260506044517 67 41 1.0 3.0 0.00 0.00 0.00 71 1009.6
20260506043537 68 34 1.0 4.0 0.00 0.00 0.00 71 1009.7
20260506042518 69 353 1.0 6.0 0.00 0.00 0.00 71 1009.8
20260506041558 69 10 1.0 4.0 0.00 0.00 0.00 71 1009.6
20260506040536 70 25 1.0 5.0 0.00 0.00 0.00 70 1009.4
20260506035558 70 17 0.0 3.0 0.00 0.00 0.00 70 1009.1
20260506034515 70 348 1.0 5.0 0.00 0.00 0.00 69 1009.0
20260506033515 70 22 1.0 4.0 0.00 0.00 0.00 68 1008.9
20260506032539 71 36 1.0 5.0 0.00 0.00 0.00 67 1008.6
20260506031515 71 32 1.0 5.0 0.00 0.00 0.00 65 1008.4
20260506030516 71 48 1.0 5.0 0.00 0.00 0.00 65 1008.3
20260506025556 72 7 1.0 3.0 0.00 0.00 0.00 66 1008.3
20260506024556 72 22 1.0 4.0 0.00 0.00 0.00 66 1008.1
20260506023517 73 5 1.0 4.0 0.00 0.00 0.00 65 1007.8
20260506022517 73 356 1.0 4.0 0.00 0.00 0.00 66 1007.6
20260506021517 74 19 1.0 4.0 0.00 0.00 0.00 65 1007.4
20260506020517 74 319 1.0 4.0 0.00 0.00 0.00 64 1007.0
20260506015517 75 30 1.0 8.0 0.00 0.00 0.00 64 1006.7
20260506014517 76 28 2.0 6.0 0.00 0.00 0.00 64 1006.5
20260506013518 77 22 2.0 6.0 0.00 0.00 0.00 64 1006.4
20260506012538 78 45 2.0 6.0 0.00 0.00 0.00 62 1006.0
20260506011518 79 25 1.0 4.0 0.00 0.00 0.00 60 1005.9
20260506010518 79 17 1.0 3.0 0.00 0.00 0.00 59 1006.0
20260506005518 80 36 1.0 6.0 0.00 0.00 0.00 59 1005.6
20260506004515 81 48 2.0 6.0 0.00 0.00 0.00 58 1005.4
20260506003538 82 357 0.0 2.0 0.00 0.00 0.00 57 1005.5
20260506002515 82 19 0.0 2.0 0.00 0.00 0.00 56 1005.4
20260506001515 83 7 0.0 2.0 0.00 0.00 0.00 54 1005.4
20260506000516 84 17 1.0 3.0 0.00 0.00 0.00 55 1005.3
20260505235516 84 4 1.0 2.0 0.00 0.00 0.00 55 1005.0
20260505234516 86 317 1.0 5.0 0.00 0.00 0.00 53 1004.9
20260505233516 87 306 1.0 3.0 0.00 0.00 0.00 48 1004.7
20260505232517 88 311 0.0 3.0 0.00 0.00 0.00 47 1004.5
20260505231516 89 350 0.0 3.0 0.00 0.00 0.00 46 1004.2
20260505230537 90 264 1.0 5.0 0.00 0.00 0.00 56 1004.2
20260505225517 91 213 2.0 6.0 0.00 0.00 0.00 55 1004.0
20260505224518 91 200 2.0 5.0 0.00 0.00 0.00 54 1003.8
20260505223517 92 215 3.0 6.0 0.00 0.00 0.00 50 1003.8
20260505222517 93 243 3.0 7.0 0.00 0.00 0.00 47 1003.6
20260505221518 93 229 3.0 6.0 0.00 0.00 0.00 41 1003.4
20260505220518 93 238 2.0 5.0 0.00 0.00 0.00 40 1003.5
20260505215518 93 232 3.0 7.0 0.00 0.00 0.00 41 1003.5
20260505214515 92 221 2.0 4.0 0.00 0.00 0.00 48 1003.6
20260505213515 91 195 1.0 5.0 0.00 0.00 0.00 49 1003.7
20260505212516 91 216 3.0 6.0 0.00 0.00 0.00 47 1003.8
20260505211556 91 236 2.0 5.0 0.00 0.00 0.00 48 1003.9